Regional Weather Roundup
Issued by NWS Bismarck, ND

Home | Current Version | Previous Version | Text Only | Print | Product List | Glossary On
Versions: 1 2 3 4 5 6 7 8 9 10 11 12 13 14 15 16 17 18 19 20 21 22 23 24 25 26 27 28 29 30 31 32 33 34 35 36 37 38 39 40 41 42 43 44 45 46 47 48 49 50
000
ASUS43 KBIS 302010
RWRBIS

NWR BROADCAST TEXT
NATIONAL WEATHER SERVICE BISMARCK ND
300 PM CDT SUN AUG 30 2015

NOTE: "FAIR" INDICATES FEW OR NO CLOUDS BELOW 12,000 FEET WITH NO
SIGNIFICANT WEATHER AND/OR OBSTRUCTIONS TO VISIBILITY.


CITY           SKY/WX    TMP DP  RH WIND       PRES   REMARKS
WILLISTON      CLOUDY    84  46  26 N18       29.71F
MINOT          PTSUNNY   90  52  27 SW13      29.62R
MINOT AFB      PTSUNNY   94  55  26 S9        29.60S HX  92
BISMARCK       PTSUNNY   92  60  34 S13       29.65F HX  91
DICKINSON      PTSUNNY   91  47  21 NW13      29.71F
GARRISON         N/A     90  54  29 W12G23    29.67R
HETTINGER ARPT MOSUNNY   98  46  17 NW8       29.73F HX  94
JAMESTOWN      MOSUNNY   84  67  56 S14G24    29.72F
CROSBY         FAIR      81  45  28 NW16G25   29.75S
HARVEY         FAIR      95  55  26 S16G28    29.64F HX  93
HAZEN            N/A     90  52  27 SW5       29.67S
OAKES            N/A     86  81  84 S17G23    29.76F HX 102
RUGBY          FAIR      95  57  28 S17G25    29.61F HAZE    HX  94
STANLEY        FAIR      82  52  34 W10G20    29.70R
$$

CITY           SKY/WX    TMP DP  RH WIND       PRES   REMARKS
GRAND FORKS    CLOUDY    87  69  54 S14G22    29.70F HX  91
GRAND FORKS AF MOSUNNY   86  69  56 S18       29.70F HX  90
DEVILS LAKE    MOSUNNY   88  66  48 S18       29.66F HX  90
FARGO          SUNNY     87  66  49 S16G26    29.76F
CAVALIER       FAIR      84  68  58 S12G18    29.67F
GRAFTON        FAIR      86  70  58 S17G24    29.69F HX  90
GWINNER        FAIR      88  66  48 S16G22    29.78F HX  90
LANGDON        FAIR      95  61  31 S20G26    29.68F HX  95
ROLLA            N/A     95  55  26 S20G30    29.65F HX  93
$$

CITY           SKY/WX    TMP DP  RH WIND       PRES   REMARKS
ABERDEEN       SUNNY     83  69  62 S18       29.78F
MOBRIDGE       PTSUNNY   94  60  32 S18G30    29.68F HX  94
BUFFALO          N/A     94  47  20 NW17G28   29.71R HX  90
RAPID CITY     SUNNY     96  56  26 SE8       29.77F HX  94
GLASGOW        MOSUNNY   78  52  40 E9        29.72F
SIDNEY         CLOUDY    82  52  34 NW30      29.72R
WOLF POINT     CLOUDY    78  54  43 NW12      29.78F
GLENDIVE       CLOUDY    81  48  32 NW31G38   29.76R
MILES CITY     PTSUNNY   81  49  32 N21G26    29.81R
BAKER          PTSUNNY   87  52  29 NW21G30   29.80R
$$

CITY           SKY/WX    TMP DP  RH WIND       PRES   REMARKS
BILLINGS       MOSUNNY   80  48  32 E12G18    29.86F HAZE
GREAT FALLS    PTSUNNY   74  41  30 W29G35    29.78F
REGINA         CLOUDY    70  52  52 W16G22    29.71R
ESTEVAN        CLOUDY    81  52  36 W17G25    29.72R SMOKE
$$




USA.gov is the U.S. government's official web portal to all federal, state and local government web resources and services.